Home   Weather   Niederkassel   Past weeks

Flag for Germany Past Weather in Niederkassel, North Rhine-Westphalia, Germany — Yesterday and Last 2 Weeks

Now
36 °F

Fog.


Feels Like: 33 °F
Forecast: 42 / 53 °F
Wind: 3 mph from Southwest

Location: Aachen-Orsbach

Current Time: Feb 25, 2017 at 1:46:06 am

Latest Report: Feb 25, 2017 at 12:00 am


Visibility: 3 mi

Pressure: 30.17 "Hg

Humidity: 95%

Dew Point: 35 °F

Location of NiederkasselLocation

Past Weather in Niederkassel — Graph

°F

Niederkassel Temperature Yesterday

Maximum temperature yesterday: 42 °F (at 2:00 pm)
Minimum temperature yesterday: 35 °F (at 11:00 pm)
Average temperature yesterday: 38 °F

High & Low Weather Summary for the Past Weeks

 TemperatureHumidityPressure
High61 °F (Feb 15, 3:00 pm)100% (Feb 11, 5:00 am)30.51 "Hg (Feb 11, 5:00 am)
Low29 °F (Feb 10, 2:00 am)49% (Feb 15, 2:00 pm)29.29 "Hg (Feb 23, 5:00 pm)
Average42 °F85%30.15 "Hg
* Reported Feb 10 12:00 am — Feb 25 12:00 am, Niederkassel, Weather by CustomWeather, © 2017

Note: Actual official high and low records may vary slightly from our data, if they occured in-between our weather recording intervals... More about our weather records

Advertising

Niederkassel Weather History for the Previous 24 Hours

Scroll right to see more
 ConditionsComfort  
Time TempWeatherWind HumidityBarometerVisibility
12:00 am
Sat, Feb 25
36 °FFog.3 mph95%30.17 "Hg2 mi
11:00 pm
Fri, Feb 24
35 °FFog.3 mph95%30.16 "Hg3 mi
9:00 pm37 °FOvercast.3 mph91%30.13 "Hg8 mi
8:00 pm36 °FPassing clouds.3 mph92%30.12 "Hg12 mi
7:00 pmN/APassing clouds.5 mphN/AN/A6 mi
6:00 pm37 °FSunny.3 mph95%30.06 "Hg14 mi
5:00 pm39 °FOvercast.5 mph87%30.03 "Hg22 mi
3:00 pm40 °FPartly sunny.6 mph79%29.99 "Hg25 mi
2:00 pm42 °FOvercast.6 mph72%29.97 "Hg19 mi
12:00 pm40 °FOvercast.6 mph88%29.96 "Hg16 mi
11:00 am37 °FOvercast.5 mph91%29.95 "Hg28 mi
9:00 am37 °FLow clouds.5 mph94%29.90 "Hg3 mi
8:00 am37 °FOvercast.7 mph91%29.87 "Hg22 mi
6:00 am36 °FOvercast.8 mph89%29.79 "Hg25 mi
5:00 am35 °FLow clouds.8 mph95%29.77 "Hg31 mi
3:00 am37 °FOvercast.10 mph91%29.70 "Hg7 mi
2:00 am39 °FOvercast.12 mph87%29.65 "Hg31 mi
Weather by CustomWeather, © 2017

See weather overviewHow to use our weather pages